Flag for Central African Republic Weather past 2 weeks in Bimbo, Central African Republic

Now
75 °F

Clear.


Feels Like: 73 °F
Forecast: 74 / 90 °F
Wind: 1 mph from North

Location: Bangui Airport

Current Time: May 4, 2015 at 3:04:23 AM

Latest Report: May 4, 2015 at 2:00 AM


Visibility: 10 mi

Pressure: 29.86 "Hg

Humidity: 100%

Dew point: 75 °F

Location of BimboLocation

Historic Weather in Bimbo — Graph

°F

Bimbo temperature yesterday

Maximum temperature yesterday: 90 °F (at 12:00 PM)
Minimum temperature yesterday: 70 °F (at 5:00 AM)
Average temperature yesterday: 79 °F

Past Weeks' High & Low Weather Summary

 TemperatureHumidityPressure
High97 °F (Apr 23, 2:00 PM)100% (Apr 19, 4:00 AM)29.95 "Hg (Apr 19, 4:00 AM)
Low70 °F (Apr 26, 6:00 AM)39% (May 1, 3:00 PM)29.71 "Hg (Apr 29, 4:00 PM)
Average81 °F76%29.84 "Hg
* Reported Apr 19 2:00 AM — May 4 2:00 AM, Bimbo, Weather by CustomWeather, © 2015

Note: Actual official high and low records may vary slightly from our data, if they occured in-between our weather recording intervals... More about our weather records

Advertising

Bimbo weather history for previous 24 hours

 ConditionsComfort  
Time TempWeatherWind HumidityBarometerVisibility
2:00 AM
Mon, May 4
75 °FClear.1 mph100%29.86 "Hg10 mi
12:00 AM77 °FClear.No wind94%29.89 "Hg10 mi
11:00 PM
Sun, May 3
77 °FClear.No wind94%29.89 "Hg10 mi
10:00 PM77 °FClear.No wind94%29.89 "Hg10 mi
9:00 PM79 °FClear.No wind89%29.86 "Hg10 mi
8:00 PM81 °FClear.2 mph84%29.83 "Hg10 mi
7:00 PM82 °FClear.2 mph79%29.80 "Hg10 mi
6:00 PM84 °FPassing clouds.2 mph74%29.80 "HgN/A
5:00 PM88 °FScattered clouds.2 mph59%29.80 "HgN/A
4:00 PM88 °FPartly sunny.3 mph62%29.77 "HgN/A
3:00 PM88 °FPartly sunny.6 mph59%29.77 "HgN/A
2:00 PM90 °FPartly sunny.7 mph52%29.77 "HgN/A
1:00 PM90 °FPartly sunny.2 mph52%29.80 "HgN/A
12:00 PM90 °FPartly sunny.No wind55%29.83 "HgN/A
11:00 AM84 °FPartly sunny.3 mph66%29.86 "HgN/A
10:00 AM82 °FBroken clouds.5 mph66%29.89 "HgN/A
9:00 AM81 °FBroken clouds.1 mph74%29.89 "HgN/A
8:00 AM77 °FBroken clouds.3 mph83%29.89 "HgN/A
7:00 AM73 °FBroken clouds.2 mph94%29.89 "HgN/A
6:00 AM70 °FSunny.No wind100%29.86 "Hg10 mi
5:00 AM70 °FClear.No wind100%29.83 "Hg10 mi
4:00 AM72 °FClear.No wind94%29.83 "Hg10 mi
3:00 AM72 °FClear.No wind94%29.83 "Hg10 mi
Weather by CustomWeather, © 2015

See weather overviewHow to use our weather pages